Location: Il Ritiro
(43.4167°N, 13.1333°E)
Time: 16:35:36
(UTC+00:00)

Cosmos 1727 Rocket - Pass Details

Date: 05 July 2020
Orbit: 962 x 996 km, 82.9° (Epoch: 10 August)

Event Time Altitude Azimuth Distance (km) Brightness Sun altitude
Rises 23:37:57 0° 347° (NNW) 3,672 8.2 -23.7°
Reaches altitude 10° 23:40:30 10° 343° (NNW) 2,725 7.2 -23.6°
Maximum altitude 23:46:32 53° 269° (W) 1,188 4.3 -23.5°
Enters shadow 23:48:07 43° 224° (SW) 1,356 4.3 -23.4°
